Location: Home
(42.5358°N, 72.7383°W)
Time: 16:54:59
(UTC-04:00)

Explorer 11/Cluster Stage 4 - Pass Details

Date: 12 August 2024
Orbit: 464 x 1208 km, 28.8° (Epoch: 19 September)

Event Time Altitude Azimuth Distance (km) Brightness Sun altitude
Rises 04:16:30 0° 251° (WSW) 3,845 - -16.5°
Drops below altitude 10° 04:19:12 - 236° (WSW) 3,355 - -16.1°
Maximum altitude 04:23:31 10° 206° (SSW) 3,068 - -15.5°
Exits shadow 04:25:40 - 190° (S) 3,196 9.3 -15.2°
Sets 04:30:55 0° 162° (SSE) 4,101 10.1 -14.4°
